Location: La Pernelle
(49.6188°N, 1.2999°W)
Time: 23:34:17
(UTC+00:00)

Daily predictions for brighter satellites

Satellite Brightness Start Highest point End
(mag) Time Altitude Azimuth Time Altitude Azimuth Time Altitude Azimuth
Cosmos 1470 3.0 20:51:21 10° N 20:55:18 57° ENE 20:59:13 10° SSE
Okean 1 Rocket 3.2 20:51:11 10° N 20:55:30 59° ENE 20:59:48 10° SSE
Cosmos 676 Rocket 4.2 20:52:48 10° NNW 20:58:08 68° ENE 21:03:27 10° SSE
MetOp-B 4.3 20:54:10 10° SSE 20:59:31 83° WSW 21:04:56 10° NNW
Cosmos 1758 3.9 20:55:55 10° N 20:59:44 41° ENE 21:03:30 10° SSE
Cosmos 2227 4.3 20:56:19 10° NNW 21:02:00 79° ENE 21:07:37 10° SSE
SL-16 R/B 3.1 20:57:17 10° SSE 21:02:06 30° ESE 21:06:57 10° NE
Cosmos 1954 Rocket 4.1 20:56:51 10° NNW 21:02:13 74° ENE 21:07:32 10° SSE
Cosmos 1697 Rocket 3.6 20:56:51 10° SW 21:02:20 54° NW 21:07:53 10° NNE
Cosmos 1455 Rocket 4.4 20:58:50 10° NNE 21:02:36 26° ENE 21:06:21 10° SE
SPOT 5 3.5 20:58:38 10° SE 21:03:38 47° ENE 21:08:26 10° N
Cosmos 2278 3.7 21:01:47 10° SSW 21:07:29 85° ESE 21:13:13 10° NNE
Cosmos 2322 Rocket 3.3 21:03:19 10° SSE 21:07:57 26° ESE 21:12:36 10° NE
Cosmos 2360 Rocket 3.8 21:06:32 10° SE 21:09:51 16° E 21:13:10 10° ENE
SWAS 4.5 21:05:44 10° SSW 21:09:58 63° ESE 21:14:15 10° NE
Cosmos 2221 Rocket 4.5 21:05:44 10° SSW 21:10:06 52° WNW 21:14:28 10° N
USA 215 3.9 21:04:31 10° ENE 21:10:10 30° SE 21:15:48 10° S
USA 238 DEB 3.8 21:04:32 10° SSW 21:10:51 53° ESE 21:17:29 10° NE
USA 238 3.8 21:04:39 10° SSW 21:10:57 53° ESE 21:17:35 10° NE
CZ-2C R/B 3.8 21:07:55 10° NNE 21:12:42 82° ESE 21:17:29 10° SSW
Okean 2 Rocket 4.5 21:09:25 10° NNW 21:13:34 38° W 21:17:43 10° SSW
Resurs 01 Rocket 2.9 21:10:05 10° SSW 21:14:12 39° W 21:18:22 10° NNW
Cosmos 1378 Rocket 3.5 21:11:04 10° S 21:15:24 89° E 21:19:48 10° N
SL-8 R/B 3.7 21:11:42 10° W 21:16:31 78° S 21:21:18 10° E
Lacrosse 5 1.9 21:12:52 10° NW 21:17:58 83° NNE 21:23:03 10° ESE
BREEZE-M DEB (TANK) 3.7 21:16:28 10° SSW 21:18:38 23° SE 21:22:20 10° E
Genesis I 4.3 21:17:59 10° S 21:21:08 24° ESE 21:24:20 10° ENE
Cosmos 1624 Rocket 4.1 21:15:53 10° SSW 21:21:13 87° ESE 21:26:33 10° NNE
Meteor 2-20 4.5 21:19:00 10° S 21:25:04 73° E 21:31:10 10° NNE
Cosmos 1626 4.0 21:24:21 11° ESE 21:26:30 16° E 21:28:52 10° NE
Cosmos 1980 Rocket 2.8 21:23:11 10° SW 21:28:45 61° WNW 21:34:21 10° NNE
Cosmos 1953 3.0 21:27:28 10° N 21:31:21 41° ENE 21:34:36 14° SE
ATLAS CENTAUR R/B 3.6 21:30:03 10° NNW 21:33:12 20° NNE 21:36:29 10° ENE
Terra 2.0 21:30:59 12° SSE 21:35:17 62° ENE 21:40:00 10° N
SPOT 1/Viking Rocket 4.3 21:30:30 10° S 21:35:29 50° W 21:40:30 10° NNW
CENTAUR R/B 2.5 21:30:59 10° SSW 21:36:53 69° SE 21:43:59 10° NE
Cosmos 292 Rocket 3.9 21:34:16 10° S 21:39:01 57° ESE 21:43:45 10° NNE
H-2A R/B 4.2 21:35:43 10° NNE 21:39:29 34° E 21:42:27 15° SSE
Cosmos 1674 3.3 21:37:32 14° SSE 21:40:24 39° E 21:43:53 10° NNE
Cosmos 220 Rocket 3.9 21:36:21 10° SSW 21:40:40 86° ESE 21:44:58 10° NNE
Cosmos 1452 Rocket 3.8 21:39:49 10° S 21:44:54 51° ESE 21:50:02 10° NNE
USA 267 3.6 21:39:03 10° ESE 21:45:32 69° NNE 21:52:03 10° WNW
Cosmos 1908 3.6 21:41:43 10° N 21:45:32 50° ENE 21:48:22 17° SSE
CARTOSAT-1 4.1 21:41:49 10° S 21:46:03 54° W 21:50:17 10° NNW
SL-23 DEB 4.3 21:42:19 10° WSW 21:46:03 84° NNW 21:52:16 10° ENE
Cosmos 2100 Rocket 4.1 21:42:18 10° N 21:48:43 73° E 21:54:16 14° SSE
Cosmos 2056 Rocket 4.2 21:44:44 10° SW 21:49:51 59° WNW 21:55:06 10° NNE
Cosmos 1844 Rocket 3.2 21:44:37 10° NNW 21:50:11 53° NE 21:55:01 14° SE
Cosmos 1707 3.2 21:48:56 10° SSW 21:52:46 61° WNW 21:56:38 10° N
Aureole 1 Rocket 4.2 21:47:50 10° NNW 21:52:55 57° ENE 21:58:28 15° SE
Cosmos 1975 Rocket 3.1 21:49:02 12° S 21:52:59 67° E 21:57:20 10° NNE
ARIANE 5 R/B 3.4 21:48:45 10° S 21:53:01 48° W 21:57:22 10° NNW
Cosmos 1850 Rocket 4.1 21:49:10 10° NNW 21:54:32 79° ENE 21:58:43 17° SSE
Cosmos 1025 Rocket 3.6 21:55:42 17° SSE 21:58:43 42° E 22:02:52 10° NNE
Cosmos 2263 Rocket 3.4 21:56:01 10° NW 22:01:09 36° WSW 22:06:16 10° S
Cosmos 2333 Rocket 3.7 22:00:01 15° SE 22:02:37 20° E 22:06:38 10° NE
Meteor 2-11 Rocket 4.5 21:57:30 10° N 22:03:40 76° E 22:08:34 17° SSE
CZ-4B DEB 4.5 22:08:06 20° S 22:10:08 63° WSW 22:13:18 10° NNW
Cosmos 1340 3.7 22:10:26 20° SE 22:12:09 30° E 22:15:28 10° NNE
Cosmos 1726 4.4 22:12:17 10° NW 22:14:53 19° W 22:17:28 10° SW
Cosmos 2173 Rocket 4.1 22:08:38 10° N 22:15:01 81° W 22:20:19 16° S
Cosmos 2016 Rocket 4.0 22:10:42 10° N 22:16:50 74° E 22:21:23 19° SSE
Cosmos 1331 Rocket 4.4 22:16:11 18° S 22:19:48 46° ESE 22:24:51 10° NNE
In-Cosmos 22 4.5 22:14:51 10° SSW 22:20:05 63° WNW 22:25:21 10° N
Cosmos 1844 3.8 22:15:28 10° NNW 22:21:03 72° ENE 22:25:07 19° SE
NOSS 8 (A) 4.2 22:19:36 15° SSW 22:22:09 53° SE 22:25:02 10° NE
Cosmos 1741 Rocket 4.2 22:18:52 10° NNW 22:24:04 65° WSW 22:27:44 20° S
Cosmos 1725 Rocket 4.0 22:19:00 10° N 22:25:12 74° E 22:29:40 20° SSE
NOSS 3-2 (C) 3.6 22:20:21 10° SW 22:26:04 77° NW 22:32:47 10° NE
NOSS 3-2 (A) 4.3 22:22:48 10° WSW 22:28:29 53° NW 22:35:07 10° NE
ALOS 2 4.1 22:25:47 14° ESE 22:28:43 27° ENE 22:32:24 10° N
ERS-1 Rocket 4.2 22:25:10 11° SSW 22:29:36 34° W 22:34:13 10° NNW
Cosmos 1802 Rocket 4.1 22:24:03 10° NNW 22:30:17 78° W 22:35:08 18° S
Cosmos 2219 Rocket 3.2 22:31:32 20° SE 22:34:09 29° ESE 22:38:58 10° NE
Cosmos 1544 Rocket 3.8 22:30:35 10° NNW 22:35:03 68° W 22:37:55 21° S
GEOS 3 Rocket 4.0 22:33:47 21° SSE 22:37:16 56° SW 22:42:33 10° NW
Cosmos 1455 Rocket 4.2 22:36:25 10° NNW 22:40:32 37° W 22:43:49 15° SSW
Cosmos 389 Rocket 4.1 22:38:31 10° NNE 22:41:20 23° ENE 22:42:52 17° ESE
ATLAS 3B R/B 3.2 22:39:31 21° SSE 22:43:09 36° ESE 22:49:10 10° NE
Cosmos 2237 Rocket 4.3 22:42:52 10° E 22:43:35 10° E 22:44:17 10° E
Cosmos 1461 2.8 22:40:50 10° NW 22:45:07 74° SW 22:47:11 28° SSE
SL-16 R/B 2.9 22:40:23 10° SW 22:45:56 54° NW 22:51:31 10° NNE
Meteor 2-5 Rocket 3.7 22:47:48 23° S 22:51:19 66° E 22:56:51 10° NNE
Cosmos 2322 Rocket 2.7 22:45:57 10° SW 22:51:35 61° WNW 22:57:17 10° NNE
Cosmos 1900 4.3 22:46:42 10° NW 22:51:40 85° NE 22:54:40 24° SE
Cosmos 1346 Rocket 4.0 22:51:09 23° SE 22:52:30 28° E 22:55:59 10° NNE
Cosmos 2360 Rocket 2.2 22:47:41 12° SSW 22:53:01 89° SE 22:58:43 10° NNE
COSMOS 2428 3.6 22:50:46 23° SSE 22:53:23 33° ESE 22:58:28 10° NE
USA 215 3.2 22:47:10 10° ENE 22:53:46 85° SSE 23:00:20 10° WSW
Lacrosse 5 rocket 2.4 22:57:45 22° ESE 22:57:45 22° ESE 23:00:00 10° ENE
Cosmos 2061 Rocket 4.3 22:50:51 10° NNW 22:57:13 65° W 23:01:48 20° S
Genesis I 4.3 22:54:43 10° WSW 22:58:28 46° NW 23:02:18 10° NNE
SL-8 R/B 3.6 22:54:12 10° W 22:58:57 64° SSW 23:02:46 15° ESE
Cosmos 2237 4.5 22:54:03 10° SW 22:59:44 71° WNW 23:05:27 10° NNE
Lacrosse 5 3.2 22:56:22 10° WNW 23:00:30 25° SW 23:02:23 20° SSW
Cosmos 2322 3.9 22:57:37 23° S 23:00:55 52° ESE 23:06:24 10° NE
Cosmos 1626 3.1 22:58:49 17° SW 23:01:22 41° WNW 23:04:55 10° N
Cosmos 1953 4.4 23:04:29 10° NW 23:07:27 20° W 23:10:16 11° SW
Cosmos 1536 Rocket 3.7 23:05:04 23° SSW 23:07:49 72° W 23:12:18 10° N
Cosmos 1455 3.5 23:05:05 10° N 23:08:33 31° ENE 23:10:18 21° ESE
Cosmos 1110 Rocket 4.3 23:05:24 13° SW 23:10:01 66° WNW 23:15:13 10° NNE
Meteor 2-10 Rocket 3.5 23:06:20 10° N 23:11:34 78° ENE 23:14:19 27° SSE
DNEPR-1 R/B 3.4 23:07:19 10° NW 23:11:34 88° SW 23:13:48 28° SE
Cosmos 2278 Rocket 3.1 23:06:24 10° NNW 23:11:50 44° NE 23:16:34 13° ESE
ATLAS CENTAUR R/B 1.5 23:08:22 10° NW 23:12:40 82° NE 23:15:12 26° SE
Cosmos 1300 3.3 23:09:43 10° NNW 23:13:25 48° W 23:15:05 28° SSW
Terra 3.9 23:10:05 10° SW 23:13:27 19° W 23:16:49 10° NW
Cosmos 405 4.0 23:13:51 10° NNW 23:17:03 36° W 23:18:19 26° SW
CENTAUR R/B 4.0 23:22:05 10° W 23:28:06 41° NNW 23:35:14 10° NE
USA 267 3.5 23:24:45 23° SSE 23:28:44 52° SW 23:35:07 10° WNW
Cosmos 968 Rocket 3.4 23:26:13 10° NNW 23:31:21 79° WSW 23:33:58 29° SSE
Cosmos 1844 Rocket 3.9 23:28:56 10° NW 23:33:50 30° WSW 23:36:40 20° SSW
Cosmos 2333 4.4 23:35:01 16° SW 23:39:40 74° WNW 23:45:25 10° NNE
COBE Rocket 4.2 23:41:58 28° SSW 23:44:34 59° W 23:49:33 10° NNW
Cosmos 2058 Rocket 3.3 23:40:22 10° N 23:44:50 63° ENE 23:46:54 30° SSE
Cosmos 2333 Rocket 2.3 23:41:58 19° SW 23:46:14 79° WNW 23:52:01 10° NNE
Cosmos 2228 3.5 23:42:41 10° NNW 23:46:58 52° W 23:48:51 30° SSW
OPS 8737 4.4 23:45:13 25° SW 23:47:14 76° NW 23:50:18 10° NE
Cosmos 967 Rocket 4.4 23:40:56 10° NW 23:47:18 80° SW 23:51:28 23° SSE
Cosmos 1513 Rocket 4.4 23:42:15 10° N 23:48:21 82° E 23:51:55 27° SSE
Cosmos 1980 4.5 23:49:19 26° SSE 23:51:46 38° ESE 23:56:59 10° NE
Cosmos 1441 Rocket 4.3 23:50:46 27° SE 23:51:58 33° E 23:55:28 10° NNE
Cosmos 1867 3.6 23:47:57 10° NW 23:53:29 90° N 23:57:05 22° SE
